When you browse on this site, cookies collect data to enhance your experience and personalize the content and advertising you see.
Visit our Privacy Policy to learn more. By continuing to use the site, you agree to this use of cookies and data.

Hourly Weather San Miguel de Tucumán

Today, 14 July, Tuesday

Time Temperature Precipitation Wind Pressure Humidity
00:00 +9°C° 0 mm 0 mps 726 mmHg 73%
01:00 +9°C° 0 mm 0 mps 726 mmHg 74%
02:00 +8°C° 0 mm 0 mps 726 mmHg 76%
03:00 +8°C° 0 mm 0 mps 725 mmHg 77%
04:00 +7°C° 0 mm 0 mps 725 mmHg 79%
05:00 +7°C° 0 mm 0 mps 725 mmHg 80%
06:00 +7°C° 0 mm 0 mps 725 mmHg 78%
07:00 +8°C° 0 mm 0 mps 725 mmHg 76%
08:00 +8°C° 0 mm 0 mps 726 mmHg 73%
09:00 +12°C° 0 mm 1 mps 726 mmHg 65%
10:00 +14°C° 0 mm 1 mps 726 mmHg 56%
11:00 +18°C° 0 mm 1 mps 726 mmHg 47%
12:00 +18°C° 0 mm 2 mps 725 mmHg 45%
13:00 +19°C° 0 mm 2 mps 724 mmHg 42%
14:00 +20°C° 0 mm 2 mps 723 mmHg 40%
15:00 +20°C° 0 mm 3 mps 722 mmHg 42%
16:00 +19°C° 0 mm 3 mps 722 mmHg 45%
17:00 +19°C° 0 mm 3 mps 721 mmHg 47%
18:00 +17°C° 0 mm 2 mps 721 mmHg 53%
19:00 +15°C° 0 mm 2 mps 721 mmHg 60%
20:00 +13°C° 0 mm 1 mps 722 mmHg 66%
21:00 +12°C° 0 mm 1 mps 722 mmHg 69%
22:00 +12°C° 0 mm 1 mps 722 mmHg 71%
23:00 +11°C° 0 mm 1 mps 722 mmHg 73%

Tomorrow, 15 July, Wednesday

Time Temperature Precipitation Wind Pressure Humidity
00:00 +11°C° 0 mm 1 mps 722 mmHg 75%
01:00 +11°C° 0 mm 1 mps 721 mmHg 76%
02:00 +9°C° 0 mm 0 mps 721 mmHg 78%
03:00 +9°C° 0 mm 0 mps 721 mmHg 80%
04:00 +9°C° 0 mm 0 mps 720 mmHg 81%
05:00 +9°C° 0 mm 0 mps 720 mmHg 83%
06:00 +9°C° 0 mm 0 mps 720 mmHg 80%
07:00 +10°C° 0 mm 1 mps 721 mmHg 78%
08:00 +10°C° 0 mm 1 mps 721 mmHg 76%
09:00 +13°C° 0 mm 1 mps 721 mmHg 67%
10:00 +15°C° 0 mm 1 mps 721 mmHg 59%
11:00 +19°C° 0 mm 1 mps 721 mmHg 50%
12:00 +20°C° 0 mm 1 mps 720 mmHg 48%
13:00 +21°C° 0 mm 1 mps 719 mmHg 46%
14:00 +22°C° 0 mm 1 mps 718 mmHg 43%
15:00 +21°C° 0 mm 2 mps 718 mmHg 45%
16:00 +20°C° 0 mm 2 mps 718 mmHg 47%
17:00 +20°C° 0 mm 2 mps 718 mmHg 49%
18:00 +19°C° 0 mm 1 mps 718 mmHg 55%
19:00 +16°C° 0 mm 1 mps 719 mmHg 61%
20:00 +13°C° 0 mm 1 mps 719 mmHg 67%
21:00 +13°C° 0 mm 1 mps 720 mmHg 68%
22:00 +12°C° 0 mm 1 mps 720 mmHg 69%
23:00 +11°C° 0 mm 1 mps 720 mmHg 70%

Day after tomorrow, 16 July, Thursday

Time Temperature Precipitation Wind Pressure Humidity
00:00 +11°C° 0 mm 1 mps 720 mmHg 71%
01:00 +11°C° 0 mm 1 mps 719 mmHg 72%
02:00 +11°C° 0 mm 1 mps 719 mmHg 73%
03:00 +10°C° 0 mm 1 mps 719 mmHg 74%
04:00 +10°C° 0 mm 1 mps 719 mmHg 75%
05:00 +10°C° 0 mm 1 mps 718 mmHg 76%
06:00 +10°C° 0 mm 1 mps 719 mmHg 74%
07:00 +11°C° 0 mm 1 mps 719 mmHg 71%
08:00 +10°C° 0 mm 0 mps 719 mmHg 69%
09:00 +14°C° 0 mm 1 mps 720 mmHg 61%
10:00 +18°C° 0 mm 1 mps 720 mmHg 53%
11:00 +20°C° 0 mm 1 mps 720 mmHg 45%
12:00 +21°C° 0 mm 1 mps 719 mmHg 43%
13:00 +22°C° 0 mm 1 mps 719 mmHg 41%
14:00 +23°C° 0 mm 2 mps 718 mmHg 40%
15:00 +23°C° 0 mm 1 mps 718 mmHg 42%
16:00 +22°C° 0 mm 1 mps 718 mmHg 45%
17:00 +21°C° 0 mm 1 mps 718 mmHg 48%
18:00 +19°C° 0 mm 1 mps 718 mmHg 54%
19:00 +18°C° 0 mm 1 mps 718 mmHg 60%
20:00 +15°C° 0 mm 1 mps 718 mmHg 66%
21:00 +14°C° 0 mm 1 mps 718 mmHg 69%
22:00 +14°C° 0 mm 1 mps 719 mmHg 71%
23:00 +13°C° 0 mm 1 mps 719 mmHg 73%

17 July, Friday

Time Temperature Precipitation Wind Pressure Humidity
00:00 +13°C° 0 mm 1 mps 719 mmHg 74%
01:00 +13°C° 0 mm 1 mps 718 mmHg 75%
02:00 +12°C° 0 mm 1 mps 718 mmHg 76%
03:00 +12°C° 0 mm 1 mps 718 mmHg 77%
04:00 +11°C° 0 mm 0 mps 718 mmHg 77%
05:00 +11°C° 0 mm 0 mps 717 mmHg 78%
06:00 +11°C° 0 mm 0 mps 718 mmHg 76%
07:00 +13°C° 0 mm 1 mps 718 mmHg 74%
08:00 +14°C° 0 mm 1 mps 718 mmHg 72%
09:00 +16°C° 0 mm 1 mps 718 mmHg 65%
10:00 +20°C° 0 mm 1 mps 718 mmHg 57%
11:00 +23°C° 0 mm 2 mps 718 mmHg 50%
12:00 +24°C° 0 mm 2 mps 717 mmHg 47%
13:00 +26°C° 0 mm 2 mps 716 mmHg 45%
14:00 +27°C° 0 mm 2 mps 715 mmHg 42%
15:00 +27°C° 0 mm 1 mps 715 mmHg 45%
16:00 +26°C° 0 mm 1 mps 715 mmHg 48%
17:00 +26°C° 0 mm 1 mps 715 mmHg 51%
18:00 +24°C° 0 mm 1 mps 715 mmHg 57%
19:00 +21°C° 0 mm 1 mps 715 mmHg 62%
20:00 +19°C° 0 mm 1 mps 715 mmHg 68%
21:00 +19°C° 0 mm 1 mps 715 mmHg 68%
22:00 +19°C° 0 mm 1 mps 715 mmHg 68%
23:00 +18°C° 0 mm 1 mps 715 mmHg 68%

18 July, Saturday

Time Temperature Precipitation Wind Pressure Humidity
00:00 +18°C° 0 mm 1 mps 715 mmHg 68%
01:00 +18°C° 0 mm 1 mps 714 mmHg 68%
02:00 +18°C° 0 mm 1 mps 714 mmHg 68%
03:00 +18°C° 0 mm 1 mps 714 mmHg 66%
04:00 +16°C° 0 mm 1 mps 714 mmHg 65%
05:00 +16°C° 0 mm 1 mps 714 mmHg 64%
06:00 +16°C° 0 mm 1 mps 714 mmHg 61%
07:00 +18°C° 0 mm 1 mps 714 mmHg 58%
08:00 +18°C° 0 mm 1 mps 715 mmHg 55%
09:00 +21°C° 0 mm 1 mps 715 mmHg 49%
10:00 +24°C° 0 mm 1 mps 715 mmHg 42%
11:00 +25°C° 0 mm 0 mps 715 mmHg 35%
12:00 +29°C° 0 mm 1 mps 715 mmHg 33%
13:00 +30°C° 0 mm 1 mps 714 mmHg 30%
14:00 +31°C° 0 mm 1 mps 714 mmHg 28%
15:00 +30°C° 0 mm 1 mps 713 mmHg 32%
16:00 +29°C° 0 mm 1 mps 713 mmHg 36%
17:00 +28°C° 0 mm 1 mps 713 mmHg 40%
18:00 +26°C° 0 mm 1 mps 713 mmHg 43%
19:00 +24°C° 0 mm 1 mps 714 mmHg 46%
20:00 +22°C° 0 mm 1 mps 714 mmHg 49%
21:00 +22°C° 0 mm 1 mps 714 mmHg 50%
22:00 +22°C° 0 mm 1 mps 714 mmHg 52%
23:00 +21°C° 0 mm 1 mps 714 mmHg 53%

19 July, Sunday

Time Temperature Precipitation Wind Pressure Humidity
00:00 +21°C° 0 mm 1 mps 714 mmHg 53%
01:00 +21°C° 0 mm 1 mps 714 mmHg 54%
02:00 +20°C° 0 mm 1 mps 713 mmHg 54%
03:00 +20°C° 0 mm 1 mps 713 mmHg 54%
04:00 +20°C° 0 mm 1 mps 713 mmHg 55%
05:00 +20°C° 0 mm 1 mps 713 mmHg 55%
06:00 +20°C° 0 mm 1 mps 713 mmHg 54%
07:00 +20°C° 0 mm 1 mps 714 mmHg 53%
08:00 +21°C° 0 mm 1 mps 714 mmHg 52%
09:00 +23°C° 0 mm 1 mps 714 mmHg 47%
10:00 +26°C° 0 mm 1 mps 714 mmHg 42%
11:00 +29°C° 0 mm 1 mps 714 mmHg 37%
12:00 +30°C° 0 mm 1 mps 714 mmHg 36%
13:00 +31°C° 0 mm 1 mps 713 mmHg 35%
14:00 +32°C° 0 mm 1 mps 712 mmHg 34%
15:00 +31°C° 0 mm 1 mps 712 mmHg 36%
16:00 +30°C° 0 mm 1 mps 712 mmHg 38%
17:00 +30°C° 0 mm 1 mps 712 mmHg 41%
18:00 +28°C° 0 mm 1 mps 713 mmHg 44%
19:00 +26°C° 0 mm 1 mps 713 mmHg 46%
20:00 +24°C° 0 mm 1 mps 713 mmHg 49%
21:00 +24°C° 0 mm 1 mps 713 mmHg 51%
22:00 +23°C° 0 mm 1 mps 713 mmHg 53%
23:00 +23°C° 0 mm 1 mps 713 mmHg 54%
Show more